Theta_e
350 348 345 341 338 337 336 335 334 333 331 330 330 331 326 318 315 314 314 316 316 316 314 312 311 311 311 311 311 311 312 313 313 312 311 311 313 316 317 318 318 316 320 326 328 327 327 327 331 333 333 335 336 336 336 336 336 336 336 335 335 335 336 335 336 335 335 335 335 334 334 333 330 328 327 327 326 324 325 329 333 335 335 336 336
349 348 346 341 338 337 336 336 334 333 332 331 331 330 325 318 315 314 315 315 316 316 313 311 311 311 311 311 311 312 313 313 314 313 312 311 313 317 318 320 322 321 322 326 326 327 329 331 334 335 334 336 336 336 335 335 336 335 335 335 335 335 335 335 335 335 335 335 335 334 333 332 330 327 324 324 325 324 325 328 332 334 335 336 335
349 349 345 341 338 337 338 337 335 334 333 332 332 330 324 317 315 314 315 315 316 315 313 312 311 311 311 311 311 312 313 314 314 313 312 311 314 317 319 323 326 327 327 328 330 332 334 335 336 336 336 336 335 335 335 335 335 334 334 334 332 330 329 328 329 332 334 334 333 331 329 329 329 326 322 320 323 325 326 329 332 334 334 335 335
350 348 345 341 339 338 339 338 336 334 333 333 332 330 324 317 315 314 314 315 316 315 313 311 311 311 311 312 312 313 313 314 314 313 312 311 314 317 321 325 328 330 331 332 334 335 337 337 336 336 336 335 335 335 335 335 334 334 333 332 329 326 321 319 319 322 327 329 328 325 323 322 323 325 324 321 321 322 324 327 331 332 332 333 333
349 348 345 341 340 339 340 339 336 335 334 333 333 331 325 319 315 314 314 315 316 315 313 312 312 311 312 312 312 313 313 314 314 313 312 312 313 317 322 326 329 330 331 333 334 336 336 337 336 336 336 336 335 334 335 334 334 334 333 332 331 325 316 315 316 315 316 318 320 319 318 316 317 320 321 319 317 316 317 319 322 323 323 325 326
348 347 345 342 341 341 340 339 336 335 335 334 333 331 327 321 316 314 313 314 315 315 313 312 312 311 312 312 312 313 313 314 314 313 312 312 312 316 322 326 328 329 330 331 333 335 335 335 335 334 334 335 335 335 335 335 335 334 334 333 330 322 315 317 318 315 313 312 314 316 316 315 314 316 318 315 313 313 312 313 314 314 317 318 319
348 347 346 343 342 341 341 339 336 335 335 335 334 332 329 323 318 315 313 313 315 315 314 312 312 312 312 312 312 312 312 314 314 313 312 311 312 314 320 325 327 329 330 331 332 333 333 332 332 331 331 332 333 334 334 334 334 334 333 331 326 321 319 320 320 317 314 311 311 313 314 314 313 318 321 314 313 314 313 313 312 312 314 316 316
348 347 346 344 342 342 340 338 336 336 335 335 335 334 331 326 320 316 314 313 314 315 315 313 312 312 312 312 312 312 312 313 314 313 312 311 312 312 317 323 326 328 330 330 331 331 330 330 329 329 330 330 330 331 331 331 332 331 329 326 324 323 321 321 320 318 315 310 311 312 311 312 312 315 317 313 315 315 314 313 312 312 312 313 313
348 348 346 344 342 341 339 337 336 336 336 336 335 335 332 328 322 317 314 313 313 315 315 313 313 312 312 313 312 312 312 313 314 313 312 311 311 311 314 319 323 327 329 329 329 329 329 329 329 329 329 329 330 330 329 328 326 324 322 321 322 323 323 322 320 317 314 310 310 311 309 311 310 313 314 313 315 314 314 313 312 311 310 311 311
349 348 347 344 342 340 338 336 336 335 336 336 336 335 333 330 324 319 316 314 313 313 315 315 313 313 313 313 312 312 311 312 313 313 313 311 311 311 312 316 321 325 327 327 327 327 328 329 329 329 329 329 329 328 327 325 323 322 323 324 324 324 324 322 317 313 312 309 310 310 309 311 313 318 321 319 318 316 316 316 315 317 317 316 317
349 349 347 344 342 340 337 336 335 336 336 336 337 336 334 331 325 320 317 315 314 313 314 315 315 314 314 313 313 312 312 311 313 313 313 311 311 311 311 313 317 322 326 327 326 326 328 328 328 328 328 329 328 328 327 324 324 325 326 326 325 324 323 319 313 310 309 309 310 310 309 312 315 318 318 315 315 316 318 317 317 324 323 321 324
349 349 346 344 342 339 336 336 335 336 336 337 337 336 335 332 326 321 317 316 314 314 313 315 315 315 314 314 313 313 312 311 311 313 313 312 311 311 311 312 314 318 322 325 325 325 328 328 328 327 328 329 329 329 327 325 326 327 326 326 326 324 321 315 310 308 309 309 309 310 310 312 314 314 313 312 313 316 318 315 313 320 322 321 325
349 349 346 343 341 337 336 335 335 336 336 336 337 337 336 333 327 321 317 316 315 315 314 314 314 314 315 315 314 314 313 312 311 311 312 312 312 311 311 311 312 314 317 320 322 323 327 329 327 327 330 331 331 330 327 325 326 327 328 328 327 323 317 311 308 309 309 309 310 310 311 312 312 313 313 314 316 318 319 316 314 317 318 319 321
349 348 346 343 339 337 335 335 335 335 336 336 338 338 337 334 330 325 319 318 318 318 318 317 316 315 314 315 315 314 313 312 311 310 312 312 313 313 312 311 311 313 314 314 315 320 327 328 327 329 331 332 332 330 326 325 327 329 329 330 329 324 317 310 308 309 308 309 310 310 310 310 311 313 313 313 316 318 319 318 317 317 316 317 316
348 348 345 342 338 336 335 334 335 335 336 337 338 339 338 336 334 331 326 324 325 326 325 323 322 319 316 315 315 314 314 313 312 310 311 312 313 313 313 313 311 311 312 312 312 319 327 327 327 331 332 332 332 329 326 326 327 329 330 330 329 326 321 313 309 309 309 309 309 310 310 311 311 311 313 313 314 314 314 315 315 316 317 316 313
347 346 342 339 337 336 334 334 335 335 336 337 338 339 339 337 337 336 333 331 332 332 331 330 329 327 323 318 315 315 315 314 312 310 310 311 312 314 314 314 312 310 311 311 311 319 326 326 329 332 332 333 332 328 327 326 328 330 330 330 328 327 323 314 310 310 310 309 309 309 309 310 311 311 311 312 312 312 313 313 312 313 314 315 313
345 343 340 338 336 334 333 334 335 336 337 337 338 340 340 339 338 337 336 335 335 334 334 333 332 331 329 325 320 317 316 315 314 312 310 310 311 314 315 314 313 311 310 310 310 315 322 326 330 332 332 333 331 327 327 327 328 330 330 329 328 327 324 316 311 312 311 311 310 309 309 309 310 311 311 311 311 311 311 311 309 310 312 313 315
340 339 337 336 335 333 332 333 335 336 337 337 339 340 341 340 339 339 338 337 336 335 334 334 333 331 331 330 327 323 319 316 315 315 312 310 311 312 314 315 314 313 311 310 310 311 318 327 331 331 332 333 330 327 328 329 329 330 329 328 328 327 324 318 314 313 313 312 312 311 310 310 309 310 310 310 310 310 310 310 309 309 311 311 314
337 337 336 335 333 332 332 333 335 336 338 338 339 341 341 341 341 340 339 339 337 336 335 335 333 331 331 332 331 330 326 320 316 316 315 311 310 311 313 314 314 314 312 310 310 309 315 326 331 331 333 332 329 327 329 331 330 329 328 328 329 327 324 321 318 316 316 315 314 313 312 311 310 310 309 309 310 310 310 310 310 310 310 311 315
336 336 336 334 332 333 334 335 336 337 338 338 339 341 341 341 341 341 341 340 338 337 336 335 334 331 331 333 333 334 332 328 320 317 317 315 312 312 312 313 315 315 314 311 310 309 313 325 331 331 333 332 330 328 329 330 330 329 329 329 329 328 325 323 321 319 319 318 318 316 314 313 312 311 310 309 309 309 309 309 310 311 310 310 312
336 337 335 333 332 335 337 337 337 337 338 339 340 341 341 341 342 342 341 340 338 337 336 336 334 331 332 334 334 334 334 332 327 321 317 316 315 315 314 313 315 317 316 313 312 309 311 324 331 331 333 333 331 330 329 330 330 330 331 330 328 328 326 325 324 322 321 321 320 319 317 316 315 313 311 310 310 309 308 308 309 309 310 310 310
336 336 335 331 333 337 337 338 338 337 337 338 340 341 341 341 341 340 340 339 338 337 337 336 334 332 333 334 333 333 335 334 333 327 320 317 316 317 317 315 316 318 318 314 314 311 310 322 330 331 333 333 332 332 329 328 330 332 331 328 327 328 326 326 325 324 324 322 321 321 319 318 317 315 314 312 311 310 309 308 308 308 308 309 309
336 336 335 332 334 336 336 337 336 335 335 336 336 336 337 337 336 336 338 339 338 337 337 336 334 333 334 334 335 333 336 336 332 327 323 321 318 317 318 317 318 319 319 316 315 313 310 319 330 332 332 333 331 332 329 328 331 331 328 326 327 327 326 326 326 326 325 323 322 321 321 320 318 316 315 313 312 311 310 309 308 308 308 308 308
336 336 335 332 334 334 334 334 333 332 331 331 329 328 329 330 329 332 337 337 336 336 336 335 334 334 335 336 337 335 335 334 330 327 324 323 321 319 317 317 320 321 321 318 316 315 312 316 328 332 332 332 331 331 330 330 330 326 324 325 326 326 326 327 328 327 326 324 323 322 321 321 320 317 315 315 314 312 311 309 309 308 307 307 307
336 335 333 333 333 332 332 332 332 331 328 327 326 325 325 325 326 331 336 335 335 336 335 334 334 334 336 337 337 335 333 331 330 329 323 321 322 320 319 317 320 322 322 321 318 317 315 314 324 331 331 332 332 332 331 329 326 321 323 326 326 328 328 329 330 329 326 325 324 323 322 321 321 319 317 315 314 313 312 310 309 308 307 307 307
336 333 331 331 331 330 331 332 331 329 327 327 326 325 325 324 327 331 334 334 335 335 334 334 335 336 338 337 337 335 332 329 328 325 321 321 321 320 320 319 321 323 323 323 321 320 319 315 319 328 331 332 332 331 329 327 323 322 325 327 328 330 330 331 332 329 326 326 324 324 323 322 322 320 319 318 316 314 312 311 310 309 308 307 307
336 332 330 328 328 329 331 332 331 329 328 327 326 326 326 325 327 330 333 335 335 334 333 333 335 337 338 337 336 334 330 328 328 325 324 325 322 321 321 321 323 325 325 324 323 323 323 319 317 323 331 333 332 330 327 324 324 326 328 329 330 330 330 331 331 329 327 326 325 324 324 323 322 321 321 320 318 316 313 311 310 309 308 308 307
337 333 330 328 329 330 330 332 331 330 329 328 327 326 327 328 329 331 333 335 335 333 332 332 335 337 337 336 335 332 330 329 330 330 329 329 327 324 323 323 324 325 326 326 325 325 325 323 320 324 331 332 330 328 326 327 327 329 330 329 329 330 331 330 330 329 327 327 326 325 324 324 323 322 322 321 319 317 315 313 311 310 309 309 308
339 336 333 330 330 330 330 331 330 330 330 328 327 327 328 329 330 332 333 334 334 332 332 333 335 337 336 335 334 332 331 331 332 332 331 331 330 328 326 326 326 325 325 326 326 326 326 325 324 327 331 330 328 327 328 331 330 329 330 330 330 331 331 330 329 328 327 327 326 325 325 325 324 323 323 322 320 319 317 316 314 311 310 309 308
339 338 336 332 330 330 331 331 330 330 330 329 328 328 328 329 330 331 331 331 332 332 333 335 335 336 335 333 333 333 332 332 332 332 332 331 331 331 330 329 329 327 325 325 326 327 327 326 327 328 329 328 327 328 331 332 330 329 329 331 330 330 331 331 329 328 327 326 325 325 325 325 324 324 323 322 321 321 320 318 315 312 311 309 308
339 339 337 334 332 331 331 331 330 330 330 329 328 328 328 329 329 329 329 329 331 332 334 335 335 336 335 332 333 333 333 333 332 332 332 332 332 332 332 331 329 327 325 323 325 327 328 328 329 329 329 329 329 330 332 332 331 330 330 331 331 330 331 331 329 328 327 326 326 326 326 325 325 324 323 322 321 321 321 319 314 313 312 310 309
340 339 337 334 332 330 331 331 331 330 330 330 329 328 329 330 328 328 329 330 331 330 331 333 335 335 334 332 332 332 333 333 332 333 332 332 333 332 332 331 328 326 325 323 323 327 328 329 331 331 331 331 331 331 332 332 331 331 331 331 330 330 330 330 329 328 326 326 327 327 326 326 325 324 324 323 322 321 320 318 316 316 313 311 311
341 339 338 335 332 330 331 332 332 332 332 332 331 329 330 331 329 329 330 331 330 328 328 332 334 334 333 333 332 332 333 333 333 333 332 333 333 332 332 330 327 325 325 324 323 326 328 330 330 331 332 332 332 332 332 332 331 331 331 330 330 330 330 330 329 327 327 327 327 327 326 325 325 325 324 324 323 322 321 320 320 320 315 311 312
341 339 338 337 336 334 332 333 333 334 333 333 332 331 332 331 331 331 331 330 328 328 329 331 332 332 332 333 333 333 333 332 333 333 333 333 332 332 332 329 325 325 326 326 323 325 329 330 329 330 331 332 332 332 332 332 331 331 330 329 329 330 331 330 329 328 328 328 327 326 326 325 325 325 325 325 325 323 320 320 320 319 316 312 312
340 337 336 336 336 336 336 335 335 335 334 334 333 332 332 331 331 332 331 329 328 330 331 331 330 330 331 331 331 333 333 333 333 333 333 333 332 332 331 328 325 325 328 328 326 327 329 329 329 329 330 331 331 331 331 331 331 330 329 329 329 330 331 330 329 329 328 328 327 326 325 326 326 325 325 326 326 322 317 316 315 315 314 311 311
337 336 335 334 334 337 338 337 336 336 335 334 334 333 332 332 332 332 331 330 331 331 330 331 331 331 331 330 330 332 333 332 332 332 333 332 332 332 330 329 327 326 329 331 331 330 329 329 329 329 329 329 331 331 331 331 331 330 329 329 329 330 330 330 330 329 328 328 327 326 326 326 326 326 325 326 325 321 317 314 312 312 312 309 310
333 334 333 333 333 336 338 338 338 337 336 335 334 333 333 332 332 331 331 331 332 332 331 331 332 331 332 332 331 331 332 332 332 332 332 332 332 331 330 330 329 329 330 331 332 332 331 331 331 330 328 328 330 332 331 330 330 330 330 329 329 330 330 330 330 329 328 328 327 326 327 327 327 326 326 326 325 322 321 319 315 314 314 314 316
331 332 332 333 333 334 336 338 338 338 337 336 335 334 333 332 330 331 331 331 331 331 330 331 332 332 333 333 332 332 332 332 332 332 331 332 331 330 331 331 331 331 331 332 332 331 330 331 332 331 329 328 330 331 330 329 329 329 329 329 330 330 330 330 329 329 328 328 327 327 327 327 327 327 326 326 326 324 323 322 320 319 320 321 322
331 331 332 332 332 333 335 336 337 338 337 337 336 335 334 331 328 330 332 332 330 328 327 329 332 333 333 334 333 332 332 332 332 332 331 331 331 331 332 332 330 329 331 332 331 329 328 330 330 329 329 330 330 329 328 328 328 329 328 329 329 328 328 329 329 329 329 328 328 327 327 327 326 327 326 326 327 326 325 323 322 322 323 324 323
331 330 330 329 329 331 332 334 335 335 336 337 337 335 334 332 330 330 330 331 331 330 329 330 331 333 334 333 333 332 332 332 332 332 331 331 331 332 332 330 328 326 328 329 327 325 326 327 327 327 327 329 330 329 328 328 329 329 328 328 327 326 327 329 329 329 329 329 329 328 327 327 326 327 326 326 327 327 326 324 323 323 323 323 324
331 329 328 328 328 329 329 331 333 334 335 336 336 335 333 331 330 329 328 329 330 331 332 332 332 332 333 333 333 332 333 333 332 332 332 331 332 332 331 329 328 327 325 324 322 323 324 324 325 326 326 328 329 329 329 329 329 329 328 327 327 327 328 329 330 329 329 329 328 328 328 327 327 327 325 325 326 327 327 325 324 323 322 323 325
331 329 328 327 328 328 328 330 332 333 335 335 334 334 333 331 327 327 328 329 330 332 333 333 332 332 333 333 333 333 333 333 332 332 332 331 331 331 330 330 330 329 327 323 322 323 324 324 325 327 327 328 329 328 329 330 330 329 328 327 328 329 328 329 329 329 329 328 328 328 327 327 327 326 324 325 326 326 326 326 325 324 322 322 324
331 329 327 327 328 329 329 330 332 334 335 334 333 333 333 331 327 326 327 329 331 333 334 333 332 332 333 333 333 333 333 332 332 332 332 331 331 331 330 330 330 330 328 326 324 324 324 325 326 328 329 329 329 329 330 330 329 329 328 328 329 329 329 329 328 328 329 328 328 328 327 327 328 326 325 325 325 325 325 326 325 324 323 323 324
333 331 330 331 333 333 333 332 333 335 336 335 334 333 333 331 329 327 326 328 331 333 334 333 333 333 333 333 333 332 332 331 331 330 331 331 331 331 330 330 329 329 329 328 326 326 326 326 326 328 330 329 329 329 330 330 329 329 329 328 328 327 328 328 328 328 328 328 328 328 328 328 328 327 326 325 325 325 325 325 325 325 324 323 324
334 333 332 333 334 334 334 334 334 336 337 335 335 335 332 330 329 329 328 330 332 334 334 334 334 334 333 333 332 332 332 331 331 330 330 331 331 331 331 330 329 328 329 329 328 328 328 328 328 328 329 329 328 329 330 329 329 329 329 328 327 326 326 326 327 328 327 327 328 328 328 327 328 327 326 325 324 325 325 325 325 324 324 323 323
334 332 330 328 329 329 331 333 333 335 335 334 334 335 332 327 326 328 329 331 333 334 333 333 333 334 333 333 333 332 332 331 331 330 330 330 330 330 331 330 329 328 328 328 328 328 329 329 328 328 328 328 328 327 328 327 328 329 329 328 326 326 326 325 326 328 327 327 327 327 327 327 327 327 327 325 325 325 325 324 324 324 324 324 324
334 333 332 327 325 324 326 328 330 332 334 332 332 333 332 328 325 326 327 329 332 333 333 333 333 333 333 333 333 332 332 332 331 330 330 330 330 330 330 330 329 329 328 328 328 328 328 328 328 327 327 327 327 327 326 326 327 329 329 329 327 326 327 326 326 327 327 327 326 326 327 328 326 326 326 326 325 325 325 325 325 325 325 325 325
334 334 332 330 326 325 325 326 328 331 333 332 331 332 332 329 326 327 327 328 330 332 333 334 333 333 332 332 333 333 332 331 330 330 330 330 330 330 329 329 329 329 328 328 327 327 327 327 327 328 328 327 327 327 327 327 327 328 328 328 327 327 327 327 326 326 326 327 327 327 327 327 326 326 327 327 327 326 325 325 325 325 325 325 325
334 332 331 330 328 327 328 329 328 330 332 332 332 331 330 328 328 328 329 329 330 332 333 333 332 332 331 331 332 332 331 330 330 330 330 330 330 329 329 329 328 328 328 328 328 328 327 327 327 328 328 327 327 328 328 329 328 327 327 328 327 327 327 327 327 326 325 326 326 327 327 327 326 326 327 327 327 326 325 325 325 325 325 324 324
334 333 330 328 326 326 328 329 329 329 331 332 332 332 331 329 328 329 330 332 332 332 332 332 332 332 332 332 332 332 331 329 330 330 330 329 329 329 328 328 328 328 328 328 328 328 328 327 327 328 328 327 328 328 329 329 329 328 328 328 327 327 327 327 327 326 326 325 325 326 326 326 326 326 327 327 326 326 325 325 325 325 324 323 323
335 334 332 330 329 327 327 328 328 328 330 332 333 333 331 328 327 328 331 333 332 331 331 331 331 331 331 331 332 331 330 329 329 330 330 329 329 328 326 326 327 328 328 328 328 328 327 327 328 328 328 328 329 329 329 328 328 328 328 328 327 327 326 326 326 326 326 325 325 325 326 326 325 326 327 327 326 325 325 324 324 323 322 321 320
Wind_Speed
29 32 30 29 28 28 27 26 25 25 24 23 23 22 22 22 22 23 23 22 21 20 19 19 19 18 19 19 19 18 17 16 15 14 13 13 14 16 18 19 23 27 28 27 26 24 22 21 20 18 16 17 18 17 18 19 19 19 18 17 17 16 16 15 15 15 16 16 15 16 15 15 14 13 13 13 13 13 14 14 16 18 20 19 19
32 34 32 31 29 29 27 25 25 24 24 23 23 22 22 22 23 23 23 23 21 20 20 20 20 20 20 20 19 18 17 16 15 15 14 14 15 18 20 22 26 30 30 29 28 26 24 22 20 17 18 18 19 19 19 20 20 20 19 19 18 17 16 15 15 14 14 15 14 15 14 14 12 11 11 11 13 13 13 13 14 17 19 19 20
31 34 32 30 29 29 27 25 24 24 24 23 23 23 22 22 23 24 24 23 22 21 21 20 21 21 21 21 19 18 18 17 16 15 15 14 16 19 21 23 27 31 31 31 29 27 24 22 20 19 20 20 20 20 20 20 20 20 19 18 17 16 15 14 13 12 12 12 11 11 11 12 11 9 10 10 12 13 12 12 13 15 16 17 19
29 32 32 30 29 29 27 25 24 25 24 24 23 22 22 22 23 24 25 24 22 21 21 21 21 21 21 21 20 19 18 17 16 16 15 15 16 19 23 24 27 30 31 30 29 27 24 22 21 21 22 22 22 21 20 19 19 19 18 17 15 14 13 13 12 10 10 9 8 7 7 9 10 10 10 11 11 12 11 10 11 12 13 15 16
27 30 31 30 30 28 27 25 24 25 24 23 22 22 21 22 22 23 24 24 23 22 21 21 21 21 21 21 20 19 18 17 17 16 15 16 17 19 22 24 25 28 29 29 28 26 25 23 23 23 23 22 22 20 19 18 18 17 16 15 13 13 13 14 14 12 10 8 7 6 7 9 10 10 10 10 10 10 10 9 8 8 10 11 12
26 29 30 30 29 28 27 25 24 24 24 23 22 21 21 21 21 22 23 23 23 22 22 22 21 21 21 21 20 19 18 17 17 17 16 16 17 18 21 23 24 26 27 28 27 27 26 25 24 24 23 22 21 20 18 17 16 16 15 14 13 12 13 15 16 15 13 9 7 7 7 8 9 9 8 8 8 8 8 8 8 7 8 9 11
26 28 28 29 29 28 27 25 24 24 24 23 22 21 20 20 20 21 22 23 23 22 22 22 21 21 21 20 19 19 18 18 18 17 16 16 16 18 20 22 24 25 26 27 27 27 27 26 25 24 23 22 21 19 18 16 15 14 14 14 13 12 13 15 16 16 15 11 8 7 7 7 9 10 9 8 8 7 7 7 7 7 8 9 11
26 27 28 28 28 28 27 25 24 24 24 23 22 21 19 18 19 19 21 22 22 22 22 22 21 21 21 20 19 19 18 18 18 17 17 16 16 17 19 22 23 24 25 26 26 26 26 25 24 23 22 21 20 19 17 16 14 14 14 15 14 13 13 15 15 16 15 13 10 9 9 8 9 10 10 9 9 8 8 7 7 7 7 9 11
27 27 28 28 28 28 27 25 24 24 23 22 22 20 18 17 17 18 20 21 22 22 21 21 21 21 21 20 19 18 18 17 18 18 17 17 16 16 18 20 23 24 24 25 25 24 25 25 24 22 21 20 19 18 16 15 15 15 16 16 16 15 15 15 16 16 15 13 11 11 10 10 10 11 11 10 9 9 8 8 8 8 8 9 10
28 28 28 28 29 28 27 25 24 24 23 22 21 19 17 16 16 17 19 20 20 21 21 21 20 20 20 20 19 18 17 17 17 18 17 17 16 15 16 19 22 23 24 24 24 24 24 24 22 21 20 19 17 16 15 15 16 16 16 16 17 17 16 16 16 15 14 12 10 10 10 10 12 14 13 12 11 10 10 10 10 11 10 10 12
28 29 28 28 28 27 26 25 24 24 24 23 21 19 17 16 15 16 18 18 19 19 20 20 19 19 19 20 19 18 17 16 17 17 18 17 17 16 15 17 20 22 23 23 23 23 23 22 21 20 18 17 16 14 13 14 15 16 16 16 17 17 17 17 16 15 14 12 10 9 9 10 13 14 13 13 13 12 12 12 13 13 11 12 13
27 28 28 27 28 27 26 24 24 24 24 23 21 19 17 16 15 15 16 17 18 18 18 18 18 18 18 19 18 18 17 16 16 17 17 18 17 16 15 16 18 21 23 23 22 23 23 22 20 19 17 16 14 12 12 13 14 15 15 16 17 17 16 16 15 14 14 13 11 9 9 12 14 14 14 14 13 13 13 13 13 13 12 13 12
26 28 27 27 28 26 25 24 24 24 24 23 21 20 17 16 15 15 15 16 16 16 16 15 16 16 17 17 17 17 16 16 16 17 17 17 17 16 16 16 17 19 21 22 22 23 23 22 20 19 17 14 12 11 11 13 14 14 15 16 17 17 16 15 14 14 14 13 12 11 11 15 15 14 15 15 14 14 15 15 14 13 13 13 11
25 27 27 28 28 26 25 24 23 23 23 22 21 20 18 17 16 15 15 15 15 15 14 13 13 14 15 15 16 16 16 16 17 17 17 17 17 16 16 16 17 19 20 21 21 23 23 22 20 18 16 14 12 10 11 13 14 14 14 15 16 17 16 14 14 14 14 15 13 12 13 15 15 15 15 15 15 15 15 15 14 13 13 13 12
24 27 28 27 27 26 25 23 23 22 22 21 21 20 19 18 16 15 15 15 15 14 13 12 12 12 13 14 14 15 15 16 17 18 18 17 16 16 16 16 17 18 19 20 21 23 23 22 21 18 15 14 11 10 10 12 13 13 13 14 15 16 15 14 14 14 15 16 15 13 12 13 14 14 15 15 16 16 16 15 14 14 14 13 13
24 27 28 27 27 27 25 23 22 21 21 21 20 20 19 18 17 16 15 15 14 14 14 13 12 11 12 13 13 14 15 15 16 18 18 18 16 16 16 15 17 18 19 20 22 23 24 23 21 18 16 14 11 9 8 10 12 11 12 13 14 16 16 14 14 15 16 16 16 14 13 12 12 13 13 14 15 15 15 15 15 14 14 13 13
25 27 27 27 27 26 25 23 21 20 20 20 19 18 18 18 17 16 15 15 15 15 15 14 13 12 11 12 12 12 13 14 15 16 18 18 17 16 16 15 16 17 18 20 22 23 24 24 22 19 17 13 11 9 7 9 10 10 11 12 14 15 16 15 14 15 16 16 16 15 14 13 12 11 12 12 13 14 14 14 14 13 13 13 13
25 26 26 26 25 24 24 23 21 20 19 19 19 18 18 18 17 17 16 16 16 15 14 14 13 12 12 11 11 11 11 12 13 14 16 18 18 16 16 16 15 16 17 20 21 22 24 24 23 20 17 14 11 9 7 7 9 9 10 11 13 15 16 16 15 15 16 16 15 15 15 14 13 12 12 12 12 12 11 12 12 12 12 13 13
25 25 25 24 24 22 22 22 21 20 20 20 20 19 18 18 17 17 16 16 16 15 14 13 13 12 12 11 10 10 11 11 11 12 14 17 18 17 16 16 15 15 16 19 20 21 24 24 23 20 17 14 13 9 7 6 8 8 9 10 12 14 16 16 16 16 15 15 15 15 15 14 13 13 12 11 11 10 10 10 10 10 11 11 11
24 24 23 22 22 21 21 20 21 20 20 20 20 19 18 17 16 16 16 16 16 15 14 13 12 13 12 12 11 10 11 12 12 11 13 15 16 16 16 15 15 16 15 17 19 20 23 25 24 21 17 15 14 10 7 5 6 7 8 9 11 13 14 15 15 15 14 14 14 14 14 13 13 12 12 11 10 9 8 8 8 9 9 9 9
23 22 20 21 21 20 20 19 19 19 20 20 19 19 18 17 16 15 15 15 16 15 15 14 14 14 14 13 11 11 13 14 13 12 12 13 14 15 15 15 15 16 16 16 18 20 23 26 25 21 18 16 14 11 8 5 5 6 7 8 10 11 11 12 13 13 12 12 11 12 11 11 11 11 10 10 10 9 8 7 7 8 8 8 8
23 21 19 21 21 20 20 19 18 18 19 19 18 18 18 17 16 15 16 16 16 15 16 16 16 16 15 14 13 13 13 14 14 12 11 12 13 13 13 14 15 15 16 16 18 20 23 26 25 22 18 16 14 11 9 6 5 6 6 7 8 8 9 9 10 10 10 10 10 9 9 9 9 9 9 9 9 8 8 7 7 7 6 6 7
23 21 20 21 21 20 20 18 18 18 18 17 17 18 17 17 16 17 17 17 17 17 18 18 18 17 16 15 15 14 12 12 12 11 11 11 12 12 13 14 14 15 16 17 18 20 23 26 26 23 19 17 14 12 9 7 5 5 4 5 5 6 7 8 8 8 9 9 8 8 8 8 8 8 7 7 7 7 7 7 6 6 5 5 6
24 22 21 21 21 20 19 18 17 17 17 17 17 17 17 17 17 18 19 19 18 18 18 19 18 16 16 17 15 14 13 12 11 11 11 12 12 13 13 14 14 15 16 17 19 20 22 26 27 24 20 17 14 12 10 8 5 2 3 3 3 4 6 6 6 8 8 8 8 8 8 8 7 7 6 6 7 6 6 5 5 6 5 5 4
23 23 22 21 21 20 17 16 16 16 16 16 16 17 17 18 18 19 19 19 19 19 18 19 18 17 18 17 16 15 14 14 13 12 12 11 13 13 13 14 14 14 15 17 19 20 22 25 27 24 20 17 14 12 11 8 4 2 2 1 1 3 4 4 5 6 6 7 7 7 7 7 7 7 6 6 6 5 5 4 4 5 4 4 4
23 24 23 22 21 19 17 17 16 16 16 16 17 17 18 18 19 20 20 20 20 19 19 19 18 18 19 17 17 16 15 14 12 12 11 10 11 11 13 14 14 14 16 17 19 20 21 24 26 25 22 18 15 12 10 7 4 2 1 1 0 2 3 3 4 6 5 6 6 6 6 6 6 6 6 5 5 4 4 4 3 3 3 3 4
22 23 24 23 21 19 18 18 18 18 18 18 18 18 19 19 19 19 19 20 20 20 20 20 19 20 19 17 16 16 15 13 11 11 10 9 9 10 13 15 15 14 16 17 19 21 21 23 25 25 23 20 16 12 9 7 5 3 0 2 2 2 4 4 5 6 5 5 6 6 5 5 5 6 5 4 3 3 3 3 3 2 2 2 2
20 22 23 22 21 21 20 19 19 19 19 19 19 19 20 20 19 17 18 18 18 19 21 20 20 20 19 17 16 14 14 12 11 11 10 9 9 11 13 15 14 14 15 17 19 21 21 22 24 25 24 21 17 13 10 8 6 4 1 3 3 3 4 5 4 5 5 5 6 5 4 4 5 5 4 3 2 2 2 2 2 1 1 1 1
17 19 20 21 22 22 22 20 19 19 20 20 20 21 21 20 19 19 18 17 18 19 20 19 19 20 18 17 16 14 14 13 11 11 10 10 11 12 13 13 13 13 14 17 19 21 21 22 24 25 23 20 17 14 11 9 7 5 3 3 3 3 4 4 3 3 4 5 4 3 3 4 5 4 4 3 2 2 2 1 1 0 1 1 0
16 17 18 21 22 22 22 20 20 21 22 22 22 23 22 21 20 19 17 17 17 17 19 18 17 18 18 17 16 14 13 13 11 10 11 11 12 12 12 12 12 11 13 15 18 21 21 22 23 23 22 20 18 15 12 9 8 7 5 4 4 4 3 3 2 2 3 4 3 2 3 5 5 4 3 3 3 3 2 1 1 1 1 1 1
15 16 17 20 21 21 22 22 22 23 23 23 24 24 21 19 19 18 17 16 16 16 17 17 15 17 17 16 15 14 14 13 11 10 11 12 12 12 12 12 11 11 12 14 17 21 22 21 21 21 20 18 16 15 12 10 9 7 5 5 5 4 3 3 3 2 3 4 3 4 5 5 4 3 2 2 2 2 3 2 1 1 1 1 2
15 15 17 18 20 21 22 23 24 24 25 24 25 24 21 20 20 19 17 17 16 16 17 17 17 16 14 14 14 13 14 13 12 11 11 12 12 12 12 11 11 12 14 14 16 21 22 21 21 20 19 17 14 14 13 9 8 7 5 5 6 5 3 3 3 1 2 3 4 4 4 4 3 2 2 2 2 2 2 2 1 1 1 1 1
14 15 16 17 19 22 23 23 24 25 26 26 26 25 23 22 21 20 18 17 17 17 19 18 16 14 13 13 14 14 15 14 13 13 12 12 12 12 11 10 11 13 15 15 16 21 24 22 21 20 18 16 13 13 13 9 8 7 6 6 6 5 4 4 3 1 1 2 3 3 3 2 2 2 2 2 2 2 2 2 1 0 1 1 2
14 14 14 15 17 20 23 24 25 26 27 27 27 26 24 22 21 20 18 17 17 18 19 17 14 13 14 14 14 16 17 16 14 14 13 14 14 13 12 11 12 15 15 15 16 20 24 23 21 20 17 14 11 11 11 10 9 9 8 7 6 5 4 4 3 1 1 0 2 2 2 2 2 2 3 3 2 2 2 2 1 1 2 2 1
14 12 12 13 16 18 22 25 26 27 27 27 28 26 24 22 20 18 17 16 18 19 18 17 14 14 15 15 15 18 18 17 16 15 14 15 14 13 12 12 13 15 16 15 16 19 22 21 19 18 15 13 12 11 10 10 11 10 9 8 6 5 5 4 3 3 2 1 1 2 2 2 2 2 2 2 2 3 4 3 2 1 1 1 2
14 12 12 13 15 17 21 25 26 27 28 28 27 25 23 22 18 17 18 17 18 19 18 16 16 16 17 16 17 19 19 18 17 16 16 16 14 13 12 13 14 15 15 15 16 17 18 18 16 16 15 14 13 12 12 12 12 12 10 9 6 6 5 5 4 4 3 2 2 2 3 2 3 3 2 2 2 3 5 6 5 5 5 6 7
13 12 12 13 14 17 20 22 25 28 29 28 26 24 23 21 17 17 18 18 17 17 17 18 18 18 19 19 18 19 20 19 18 18 18 17 15 13 12 12 12 12 13 13 14 14 15 15 14 14 15 15 15 14 14 14 13 13 11 9 7 6 5 5 6 5 4 4 3 3 2 2 3 2 2 2 2 3 5 6 7 8 9 10 11
12 11 11 11 12 15 18 20 23 26 28 28 26 25 24 18 15 17 18 18 17 16 17 18 19 20 20 19 18 18 19 18 18 19 18 17 15 14 13 12 11 11 12 12 12 13 15 15 15 15 15 15 16 16 15 14 14 13 11 9 7 6 6 6 6 5 5 5 4 3 3 2 2 2 2 2 2 2 3 4 6 7 9 10 10
11 12 12 12 12 14 17 19 21 23 25 27 26 25 24 19 17 18 19 20 19 19 19 18 19 20 19 19 18 16 16 16 17 18 18 17 16 15 14 12 12 12 14 14 14 15 16 17 16 17 16 15 15 15 14 14 13 12 10 8 7 6 6 7 6 6 6 6 4 4 3 2 2 2 2 2 2 2 2 3 4 5 6 7 6
12 13 13 13 14 15 17 18 19 20 21 25 26 26 25 22 20 21 21 22 22 22 21 19 19 19 19 19 17 15 16 16 16 17 18 17 16 16 15 13 13 13 14 15 15 15 16 17 17 17 17 16 15 14 13 13 12 10 9 8 8 7 7 7 7 7 8 7 5 5 4 3 2 3 3 2 3 3 3 3 3 4 4 3 3
15 14 13 14 15 16 16 16 17 18 20 24 27 28 27 23 21 22 23 24 24 24 22 20 20 19 19 18 16 16 16 16 16 16 17 17 16 17 15 14 14 13 14 15 15 15 16 17 18 18 18 17 16 15 13 12 12 11 10 10 9 8 8 8 8 9 9 7 6 6 5 4 3 3 3 3 4 4 5 5 5 4 3 2 0
16 14 14 14 15 16 15 15 17 19 20 22 25 26 25 22 20 20 23 24 25 24 22 20 20 19 18 16 16 15 15 15 15 15 16 16 16 16 15 15 15 14 14 15 15 16 17 18 20 19 18 16 16 15 14 13 13 13 12 10 9 9 8 8 8 9 8 6 6 6 6 5 4 4 4 4 4 5 6 6 6 6 5 3 2
15 13 13 14 16 17 16 16 18 20 21 21 22 23 24 23 22 21 22 24 24 23 21 20 20 19 17 15 15 14 13 14 14 14 15 16 16 16 16 16 16 15 16 17 17 18 19 20 21 20 18 17 16 15 14 14 13 13 11 10 11 11 10 9 10 8 7 6 6 6 6 5 5 4 4 4 5 5 6 6 6 7 7 5 4
17 14 15 16 18 18 17 17 18 20 22 22 22 23 24 25 26 23 22 23 23 21 20 19 20 19 16 15 15 14 15 15 14 14 15 16 17 17 17 17 16 16 17 17 18 18 18 20 21 20 18 17 17 16 15 15 13 12 10 9 10 11 10 11 12 10 7 7 6 6 6 5 5 5 5 5 5 5 5 6 6 7 7 6 5
19 17 17 18 19 18 18 18 19 21 22 23 25 26 25 25 26 25 22 22 20 20 20 20 20 18 17 16 15 15 15 16 16 16 15 16 17 16 16 16 16 16 16 16 16 16 17 18 20 20 18 17 17 16 15 14 12 10 9 8 7 8 10 12 13 10 8 8 7 7 6 5 6 5 5 6 5 5 5 5 6 6 6 6 6
21 19 18 19 18 17 18 20 21 20 20 21 23 26 26 24 22 22 22 22 20 20 20 20 19 18 17 16 15 15 15 16 17 17 17 17 17 16 16 16 15 15 15 15 16 17 17 18 18 18 18 17 15 15 15 14 13 11 11 10 7 5 7 11 13 11 10 9 7 8 7 6 6 6 6 6 5 4 5 5 5 5 5 5 6
22 21 21 21 20 18 18 20 20 19 18 19 21 25 27 25 22 20 21 22 22 21 20 19 19 18 18 16 15 16 15 15 17 18 18 17 17 17 16 15 15 15 15 15 16 17 17 17 16 16 17 16 16 15 14 14 14 14 13 12 10 6 4 6 11 12 12 10 8 8 7 6 6 6 6 6 6 5 5 5 5 4 5 5 5
23 22 23 23 22 21 20 19 18 17 19 21 22 25 27 26 24 22 22 22 22 20 18 17 17 17 17 16 15 15 15 16 18 19 18 17 17 17 16 16 16 16 16 15 15 15 16 16 16 16 16 17 17 15 13 14 15 14 15 14 12 9 5 3 7 10 11 13 12 9 8 8 8 7 7 7 6 6 5 5 4 4 5 5 5
23 22 22 23 23 23 23 21 17 17 20 23 24 24 25 25 25 25 24 22 21 19 18 17 16 16 17 16 16 16 17 19 19 18 18 18 17 17 17 17 16 16 16 15 14 14 15 15 15 15 16 17 17 15 13 13 14 13 14 14 13 11 7 4 6 9 9 10 12 12 11 10 8 7 7 7 6 6 5 4 4 5 5 6 6
22 21 21 22 22 22 22 21 18 18 21 24 25 25 25 24 24 25 25 23 21 20 20 18 16 16 17 17 17 17 19 21 20 19 18 18 17 17 17 17 16 16 16 15 14 14 14 14 13 13 14 15 15 15 13 11 12 13 14 14 13 12 9 8 9 11 9 8 9 12 13 12 10 9 8 7 6 5 4 3 4 4 5 5 5
22 22 22 22 23 24 23 22 20 20 21 24 25 25 24 23 23 24 25 24 21 20 19 18 17 17 17 18 18 18 19 20 20 19 18 18 18 17 17 17 16 16 16 16 15 14 14 14 14 13 13 14 14 14 12 11 11 13 14 13 13 12 10 9 9 9 9 8 7 11 13 12 12 11 9 8 5 4 5 5 4 3 3 3 2
Wind_Direction
178 172 175 174 171 170 168 169 169 169 165 162 160 160 161 162 164 164 163 162 159 155 153 152 149 147 145 143 141 138 133 129 124 117 109 100 92 93 94 95 100 104 109 113 115 114 113 113 111 109 102 102 105 103 100 99 98 96 94 92 90 90 90 91 92 92 92 91 89 89 86 85 86 88 88 88 87 89 92 89 88 87 84 85 86
176 174 177 174 171 170 168 169 169 169 165 162 160 160 160 162 163 164 164 162 159 155 154 153 150 149 147 146 142 139 135 131 125 117 108 100 95 96 101 102 104 108 111 113 114 113 111 111 108 107 104 107 109 105 101 98 97 95 94 90 87 85 85 87 88 89 90 91 90 88 87 84 83 87 90 91 89 90 92 92 93 90 85 84 85
176 174 176 172 171 169 168 169 169 169 166 164 160 160 160 162 163 165 165 162 159 156 157 155 153 152 150 148 144 141 137 133 125 116 109 102 100 102 108 108 108 110 112 113 113 111 109 108 108 107 107 109 107 103 100 99 97 94 92 89 88 86 82 81 81 84 83 85 87 86 91 93 90 89 91 93 93 95 98 96 95 93 88 85 85
177 175 175 173 172 171 171 170 171 171 168 166 162 160 160 163 165 167 166 163 160 158 158 157 155 154 152 150 146 143 139 135 126 118 111 105 104 107 112 112 112 113 114 115 112 110 108 108 109 108 107 107 105 102 101 101 99 96 93 91 89 85 80 75 74 82 89 88 83 79 93 106 104 97 96 95 96 99 102 102 99 96 92 89 89
179 177 177 175 173 173 173 173 172 172 171 168 164 161 161 164 167 168 166 164 161 160 161 159 158 156 154 152 148 145 142 137 128 121 115 109 107 110 115 115 115 116 116 116 114 113 112 112 112 110 109 107 105 105 103 101 101 99 97 94 88 83 80 72 66 71 85 96 92 84 95 106 107 106 106 103 103 104 104 106 102 96 93 93 100
181 179 179 177 176 175 175 175 174 174 173 170 166 164 164 166 167 167 166 165 163 162 163 162 160 158 156 154 151 147 144 140 132 125 118 112 111 113 117 117 117 118 119 119 118 118 119 118 117 116 114 112 110 109 108 106 105 105 103 99 94 86 76 65 58 59 65 81 96 97 99 101 107 109 109 112 111 106 104 104 103 101 96 97 106
182 181 181 180 179 176 176 176 176 176 175 172 169 168 169 167 166 166 166 167 166 166 166 164 162 160 157 157 155 150 147 143 136 129 122 116 114 116 119 120 119 120 121 121 122 122 123 121 120 120 119 118 117 116 116 116 115 113 109 102 94 82 68 58 52 50 52 65 87 102 108 104 105 103 102 114 115 112 112 109 108 108 103 99 102
183 183 184 183 181 177 176 177 178 178 176 175 174 173 171 168 166 166 167 169 170 169 168 167 164 162 160 160 158 152 150 146 140 133 127 122 119 118 122 123 122 122 123 124 125 125 125 125 123 122 121 120 120 120 121 122 122 115 105 97 89 77 65 57 49 46 45 54 73 92 103 97 97 98 98 108 111 113 115 118 116 108 106 101 97
184 185 185 183 181 178 176 178 179 179 179 179 179 178 173 169 167 167 169 171 172 172 170 170 167 164 162 163 162 155 152 150 144 137 132 128 124 122 125 128 127 126 126 126 126 127 127 126 125 124 123 121 120 120 122 122 119 108 98 91 84 74 63 55 47 43 41 50 70 89 92 88 89 90 90 96 101 103 102 109 114 99 95 97 93
186 185 185 183 180 178 178 179 179 180 181 182 183 180 175 171 169 169 171 173 174 174 173 172 169 167 165 165 164 159 155 153 148 142 137 132 129 128 128 130 131 130 129 128 129 129 128 127 126 124 121 120 121 123 124 122 114 104 95 87 79 71 62 53 46 43 43 49 66 83 87 85 86 86 85 89 93 96 96 99 100 89 82 87 84
188 186 184 182 179 179 179 180 180 181 183 185 184 180 176 173 172 172 173 174 175 176 176 174 173 170 169 169 167 164 159 156 153 146 141 136 134 135 133 133 134 134 133 132 133 133 131 129 127 124 121 120 121 121 120 115 106 99 91 82 74 67 61 54 50 48 49 54 59 67 83 88 85 87 86 87 90 91 94 99 100 92 88 91 86
189 187 184 181 180 179 180 181 182 183 185 185 184 181 178 175 173 173 173 176 176 176 176 176 176 175 173 172 170 169 164 160 158 152 147 143 142 143 140 137 136 137 137 138 139 139 136 133 130 126 123 121 120 119 116 108 100 93 85 76 69 63 60 58 55 55 56 61 62 55 71 86 83 85 85 84 86 85 86 92 96 93 92 94 95
189 188 184 182 180 180 181 182 184 185 185 184 183 182 181 177 174 173 173 174 174 173 174 177 178 178 178 176 174 173 169 165 163 158 154 150 149 150 146 142 139 139 141 142 144 144 141 137 134 129 125 124 123 121 117 107 98 89 81 73 66 62 60 62 60 58 59 63 66 57 60 74 76 78 81 80 81 82 83 85 88 90 93 95 98
190 187 184 183 181 181 182 184 187 187 186 184 183 183 182 179 176 173 172 172 171 169 170 173 174 177 179 178 178 177 174 171 168 165 161 158 156 154 151 148 142 141 144 144 147 148 144 141 136 132 129 129 129 127 120 107 95 86 79 74 69 65 60 61 62 60 61 63 66 63 60 65 67 70 75 78 80 81 83 85 87 89 93 96 95
192 187 185 184 184 183 184 186 188 188 187 184 183 183 182 180 179 176 174 174 170 170 173 175 174 174 175 174 176 175 173 174 173 171 168 166 163 159 156 152 146 144 146 145 147 149 147 144 139 136 135 135 138 139 126 106 92 85 81 77 72 67 60 59 62 60 62 64 64 63 64 65 64 64 66 71 76 80 83 87 87 86 87 90 92
191 187 185 184 186 186 185 187 188 188 187 184 184 183 183 182 182 181 180 178 174 176 179 180 180 175 173 172 171 170 170 171 173 175 173 172 170 166 160 155 152 147 148 148 147 149 149 146 142 141 140 142 150 150 134 107 95 91 85 79 73 66 60 58 62 61 60 61 61 61 63 65 66 66 64 64 69 74 79 83 86 88 89 92 93
189 187 185 186 188 188 187 187 187 187 185 184 184 183 184 185 184 186 186 185 183 183 184 186 186 180 178 175 171 167 167 169 169 173 175 175 175 174 166 159 159 153 150 150 150 152 153 150 146 146 143 149 164 161 145 116 104 99 88 79 71 63 59 59 60 60 59 59 59 59 60 60 61 63 63 63 66 69 73 79 85 89 92 93 93
185 186 187 189 190 189 188 186 185 184 183 182 182 184 186 187 187 189 190 191 191 189 189 190 189 183 182 177 172 171 170 171 170 172 175 178 179 180 175 167 166 161 154 151 152 155 157 155 151 150 147 157 174 168 157 128 112 100 87 78 68 60 58 57 56 57 58 58 57 57 58 54 54 55 56 59 61 64 66 73 81 86 90 92 93
184 187 189 191 189 188 187 185 185 182 181 181 182 184 187 189 189 191 192 194 196 195 193 192 190 185 182 180 180 181 180 177 174 174 176 181 183 183 181 174 172 168 161 153 153 157 160 160 155 153 151 164 179 172 162 134 115 100 85 76 63 58 58 56 53 54 55 56 55 53 53 49 48 48 49 53 56 58 57 61 68 72 79 85 89
186 189 189 191 188 186 185 183 183 181 182 182 183 185 188 192 193 194 195 197 198 197 196 195 193 187 184 184 184 184 187 185 179 177 176 181 185 186 184 180 178 174 168 158 154 157 161 162 159 155 156 171 181 174 164 139 115 97 85 74 59 59 61 57 55 55 55 56 55 54 52 46 43 44 44 46 50 52 52 53 56 61 69 75 81
188 190 189 191 187 183 184 182 181 181 184 184 186 188 191 195 197 198 197 200 199 197 198 196 194 190 188 186 188 192 196 194 186 183 180 180 185 188 184 182 183 179 173 163 156 158 162 164 161 157 161 175 182 174 168 150 113 97 88 70 56 62 65 61 60 57 54 54 54 57 56 49 42 42 42 40 41 42 46 48 48 55 63 66 73
191 189 189 192 188 186 184 181 179 179 184 186 189 191 195 199 201 200 199 200 199 199 198 195 193 191 190 190 194 197 200 200 192 188 186 182 185 187 184 182 185 181 175 167 160 159 162 165 164 160 165 178 182 174 170 158 123 107 91 64 53 64 66 62 61 54 48 46 46 52 55 52 45 40 38 37 38 39 43 42 43 51 56 58 63
194 189 191 193 189 189 185 181 181 181 184 188 192 195 198 201 203 201 199 200 201 202 200 197 194 192 193 193 191 191 198 201 192 189 191 186 185 185 184 184 185 182 177 170 164 161 163 166 166 164 169 180 181 172 169 163 140 111 82 57 50 61 65 59 57 50 44 39 36 42 48 52 50 44 38 32 34 37 42 40 40 48 55 57 60
194 189 191 194 192 193 188 184 185 184 187 190 196 200 201 202 202 200 198 200 201 201 200 199 195 194 195 191 188 187 191 192 181 181 190 190 187 186 185 185 185 183 178 172 167 163 164 168 168 167 172 181 180 171 166 163 148 102 52 52 55 65 68 61 54 47 43 38 34 34 36 43 47 48 40 30 29 30 37 40 41 49 57 59 64
195 192 191 194 195 195 190 188 188 188 190 194 198 201 203 202 200 199 199 200 201 200 200 200 196 195 195 190 188 186 188 190 183 186 191 191 191 191 188 184 185 183 179 174 169 164 163 168 171 170 173 179 178 169 166 165 158 103 43 33 61 72 68 64 54 43 46 49 43 34 28 33 42 46 41 32 29 27 32 35 40 50 57 59 69
198 197 196 198 198 193 190 190 189 189 193 196 198 202 205 203 201 202 202 202 202 202 202 201 198 196 195 192 190 186 192 197 194 195 193 190 193 193 186 182 182 182 179 174 170 165 161 166 172 173 174 178 177 170 169 171 165 122 49 308 353 55 44 41 38 33 46 60 53 39 27 31 42 46 41 34 29 23 23 30 36 44 51 62 70
203 203 203 203 199 194 193 194 192 190 193 196 199 203 205 204 202 205 207 205 205 205 205 205 202 197 195 194 194 193 198 201 195 191 185 180 182 181 179 180 179 179 181 176 171 168 163 165 171 175 176 177 178 177 178 180 172 143 321 295 309 0 8 2 15 23 33 52 55 47 35 33 44 46 40 35 28 13 12 23 29 38 55 70 74
209 208 208 206 202 201 200 199 195 192 193 196 200 205 207 205 202 206 212 210 210 211 211 211 206 198 193 194 199 203 204 198 188 180 174 171 169 169 173 178 178 177 182 179 173 171 168 167 170 175 177 179 183 186 182 176 169 157 218 282 297 327 347 350 7 17 19 48 59 52 38 34 45 45 31 27 20 5 357 0 19 46 92 89 81
214 212 212 211 206 206 205 202 196 194 197 199 202 207 209 207 203 207 211 212 215 217 220 220 210 198 193 198 203 206 205 197 188 179 175 174 170 169 171 173 176 178 181 182 177 173 173 173 173 176 179 183 187 189 181 171 168 170 199 251 283 309 329 344 6 13 19 47 49 34 33 41 50 41 21 12 11 359 334 321 329 298 156 139 150
212 212 216 214 209 208 207 205 199 198 201 202 205 208 210 209 207 211 212 214 217 222 230 229 214 198 194 202 205 206 208 201 196 190 183 183 179 174 172 172 174 178 179 181 180 176 177 178 177 178 182 185 187 190 185 177 178 182 198 232 264 288 301 309 331 9 31 40 34 39 57 57 53 40 21 10 8 355 333 319 286 266 216 198 189
206 209 214 216 214 212 211 208 203 202 203 205 209 209 211 212 213 215 214 215 218 225 235 234 217 202 198 204 207 209 211 207 207 204 193 190 188 182 179 177 178 179 177 178 179 179 179 179 179 180 183 186 189 195 194 189 189 186 197 228 252 271 274 273 297 350 35 43 58 67 63 59 55 47 37 33 25 354 338 342 315 283 241 214 194
199 205 211 216 217 215 211 207 205 204 205 208 211 210 210 215 215 214 213 214 217 226 235 234 220 209 206 209 212 213 213 212 214 213 202 196 194 191 188 184 181 180 180 178 178 181 180 180 182 182 184 188 193 197 196 197 198 196 207 232 247 253 247 251 272 305 52 57 69 63 57 57 58 67 64 57 48 9 341 345 331 282 241 226 205
191 201 209 216 219 218 214 211 210 208 209 211 213 211 210 212 214 212 211 211 213 224 234 237 232 224 223 221 219 215 212 214 215 213 207 200 197 197 196 192 186 183 183 181 179 181 182 186 189 187 188 191 193 198 196 197 204 208 216 229 240 238 229 235 237 204 61 61 64 58 60 65 73 84 78 69 53 29 353 354 17 264 265 258 224
187 194 203 211 218 221 219 217 216 215 215 214 213 215 213 210 212 212 210 210 215 226 233 236 238 239 237 233 230 222 213 210 211 210 207 203 199 198 197 195 190 183 180 179 177 179 184 190 193 191 191 191 193 200 200 201 209 212 211 215 223 218 216 222 214 222 303 52 75 77 92 92 94 92 84 81 66 46 28 30 41 297 290 273 210
189 190 198 208 214 219 222 221 221 219 218 216 215 217 215 208 210 212 207 211 223 228 229 229 228 234 239 236 236 232 220 208 206 208 207 204 202 198 195 195 191 180 175 172 172 177 185 193 196 194 193 192 196 201 199 202 208 209 210 213 212 205 204 208 214 237 248 203 121 118 124 122 119 109 102 91 75 65 57 59 54 358 331 141 99
191 195 206 215 215 216 221 222 222 222 220 218 219 218 214 208 207 211 209 213 221 223 225 227 225 227 233 230 229 233 225 210 205 206 205 204 203 198 195 196 189 178 175 172 173 180 187 192 196 199 198 197 199 200 195 198 207 213 220 222 213 205 204 205 225 239 225 184 148 147 147 143 136 125 119 89 77 80 72 69 69 69 86 102 101
195 205 217 220 218 215 219 222 222 224 221 220 222 218 211 207 204 208 214 216 216 218 221 225 223 222 227 226 222 224 219 208 204 203 201 199 199 198 196 196 188 182 184 182 183 190 193 195 196 200 205 206 203 203 202 202 210 218 222 222 213 206 208 215 227 227 206 182 169 174 173 153 139 136 133 100 90 94 84 81 82 83 91 100 102
200 211 221 223 222 219 220 221 221 223 222 221 223 218 209 205 202 207 216 217 215 217 221 224 225 224 227 227 223 220 214 205 202 202 198 195 196 198 197 195 193 195 200 198 198 200 201 203 203 202 205 208 208 208 210 210 212 216 216 212 206 202 203 213 221 215 199 193 196 198 180 160 157 158 157 140 144 137 110 103 99 97 98 100 100
204 212 215 218 221 222 223 223 220 221 223 222 222 216 209 203 202 208 215 217 216 217 219 224 227 227 227 226 225 222 215 207 202 200 196 193 193 195 195 196 199 204 207 207 207 207 203 204 208 206 199 200 208 209 212 213 210 210 207 199 197 199 203 213 216 210 205 206 212 208 188 180 198 203 191 175 184 192 169 134 124 125 114 102 97
205 211 211 212 217 220 223 224 222 219 219 219 216 212 208 204 202 208 214 217 218 220 222 225 229 228 227 227 223 216 212 209 204 200 196 193 192 193 193 194 198 201 206 209 209 206 202 202 208 208 200 194 198 204 209 213 208 199 195 193 196 198 202 208 208 206 209 212 212 208 204 204 213 221 214 199 206 214 203 183 170 161 145 119 102
203 208 207 210 217 222 223 223 220 214 212 212 211 210 207 203 203 210 215 217 220 223 226 229 230 230 228 227 222 212 208 207 206 204 198 194 194 192 191 193 196 199 205 209 204 199 199 203 205 205 203 198 197 202 208 214 215 204 193 189 192 194 196 199 204 212 213 213 215 211 212 218 218 224 229 228 222 220 213 204 199 194 194 204 168
201 202 204 211 218 223 224 223 215 209 209 209 209 211 210 207 210 217 221 222 224 227 230 232 233 233 230 226 226 219 208 203 204 206 202 198 195 194 194 196 201 205 206 204 200 196 196 202 204 202 203 205 208 210 209 214 220 216 205 190 184 187 194 203 212 219 217 212 216 215 217 220 216 227 237 234 224 220 217 212 211 217 225 237 258
203 202 204 215 222 224 226 222 216 212 210 208 209 211 212 214 218 224 227 227 229 231 233 237 236 234 230 226 228 224 213 203 198 203 205 199 197 198 198 199 204 209 207 202 199 197 196 200 205 206 207 209 212 214 215 216 213 211 205 189 186 190 193 210 218 218 216 212 210 213 217 211 206 221 233 228 221 219 221 220 220 226 235 240 244
208 210 211 222 232 234 234 228 222 220 218 215 215 216 215 218 222 227 232 233 234 236 235 235 235 233 228 225 225 221 215 204 195 200 204 201 201 199 198 201 203 206 206 204 201 199 200 202 205 208 213 213 213 213 214 213 207 207 205 191 193 197 196 207 213 209 207 209 209 209 208 199 201 215 221 218 215 214 218 225 226 228 235 242 242
211 213 214 222 231 235 238 235 228 223 221 215 216 221 221 223 227 231 237 238 236 236 234 232 232 231 226 224 223 218 214 205 197 200 202 202 201 195 195 200 201 203 207 207 205 204 205 206 207 210 215 218 220 218 214 209 208 215 221 214 205 204 207 207 203 201 204 208 208 204 203 200 202 212 218 214 210 208 210 219 228 233 240 248 249
210 211 210 210 213 217 222 228 227 222 220 217 217 223 225 228 233 235 241 242 238 236 235 236 236 234 228 223 219 216 213 206 200 200 201 201 197 192 194 199 202 205 208 208 206 206 208 208 210 213 214 216 222 226 222 215 210 211 220 230 232 230 228 209 193 185 189 201 203 197 201 206 207 213 216 209 209 214 214 216 225 236 247 252 253
211 214 214 208 203 204 209 216 219 217 219 222 224 226 228 231 235 240 244 244 242 241 239 240 242 243 237 227 221 217 210 202 197 197 199 199 197 195 194 197 202 208 211 211 206 206 208 209 208 211 211 212 216 224 228 222 214 210 212 221 233 243 252 219 200 190 181 184 196 201 202 203 207 212 208 206 214 221 221 229 234 239 252 259 261
212 215 220 218 211 209 211 212 210 209 213 217 224 228 229 232 238 245 247 244 245 244 239 238 244 247 243 236 228 217 202 191 191 195 196 196 198 198 196 198 202 207 212 214 212 208 208 208 207 207 210 211 213 217 223 224 220 217 212 216 227 236 245 243 225 215 192 179 185 195 195 195 203 205 201 202 213 220 227 240 249 253 262 273 272
215 216 221 223 221 219 219 217 213 213 212 210 216 224 229 234 242 249 249 246 246 244 240 239 242 242 240 236 226 210 196 189 190 193 195 198 200 199 200 203 204 207 211 213 215 213 212 211 209 208 210 212 212 212 216 222 224 223 218 217 224 230 237 239 222 220 210 190 187 189 186 186 190 191 196 198 200 212 230 242 252 262 266 271 269
219 222 226 227 227 227 224 219 221 223 215 210 213 220 227 234 240 247 250 249 246 242 241 241 240 236 232 228 217 204 198 194 192 193 198 201 201 201 204 206 207 210 210 210 211 213 217 217 213 214 216 216 213 212 213 215 221 227 224 220 224 227 236 235 214 209 214 212 200 192 186 184 177 172 182 196 197 203 216 223 229 241 249 255 261
225 228 233 236 237 237 232 226 229 231 220 214 216 220 224 229 235 243 250 252 249 245 245 238 230 228 224 218 210 204 201 199 197 197 200 202 202 204 207 208 210 212 210 209 211 215 218 216 213 213 217 219 216 213 210 204 210 224 224 224 228 232 247 249 229 219 220 219 210 194 186 181 175 168 172 187 188 179 180 182 189 205 224 239 257